Volver al catálogo

SL-6 R/B(2)

ActivoHEO
NORAD 18704·ROCKET BODY·🇷🇺 Russia

Lanzado Dec 21, 1987 desde Plesetsk Cosmodrome

Loading…

Próximos Pases (próximas 24 horas)

TLE

ActualizadoSource: Space-Track

Época: Sep 10, 2026, 20:37 UTC

1 18704U 87105D   26253.85919083 -.00000149  00000-0  00000-0 0  9997
2 18704  67.6640 260.6050 5620865  52.4362 346.5544  2.04200898252603

Sigue SL-6 R/B(2) en tiempo real con AllMySat

Download on the App Store